Location: *
(43.9900°N, 3.4811°E)
Time: 15:55:24
(UTC+00:00)

USA 32 - Pass Details

Date: 25 August 2019
Orbit: 777 x 783 km, 85.0° (Epoch: 21 September)

Event Time Altitude Azimuth Distance (km) Brightness Sun altitude
Rises 20:51:08 0° 355° (N) 3,272 8.0 -22.2°
Reaches altitude 10° 20:53:30 10° 356° (N) 2,339 7.1 -22.5°
Maximum altitude 20:58:45 84° 84° (E) 788 3.9 -23.2°
Enters shadow 20:59:52 57° 165° (SSE) 914 4.0 -23.4°
